Pontiac, MI

5:12 PM EST on November 11, 2019 (GMT -0500)
Oakland County International

Weather History for KPTK - June, 2019

Change the Weather History Date:

Saturday, June 1, 2019

  Actual Average Record
Temperature  
Mean Temperature 68 °F -  
Max Temperature 75 °F 68 °F 86 °F (2002)
Min Temperature 60 °F 48 °F 39 °F (2003)
Cooling Degree Days 2    
Growing Degree Days 18 (Base 50)    
Moisture  
Dew Point 60 °F    
Average Humidity 82    
Maximum Humidity 100    
Minimum Humidity 62    
Precipitation  
Precipitation 0.32 in - - ()
Sea Level Pressure  
Sea Level Pressure 29.76 in    
Wind  
Wind Speed 9 mph (SW)    
Max Wind Speed 20 mph    
Max Gust Speed 28 mph    
Visibility 7 miles    
Events Rain , Thunderstorm    
Averages and records for this station are not official NWS values.
T = Trace of Precipitation, MM = Missing Value Source: NWS Daily Summary

Daily Weather History Graph

Daily Weather History Graph

Search for Another Location

Airport or City:

Astronomy

Jun. 01, 2019 Rise Set
Actual Time 5:58 AM EDT 9:04 PM EDT
Civil Twilight 5:24 AM EDT 9:39 PM EDT
Nautical Twilight 4:40 AM EDT 10:22 PM EDT
Astronomical Twilight 3:48 AM EDT 11:15 PM EDT
Moon 5:06 AM EDT (6/1) 7:13 PM EDT (6/1)
Length of Visible Light 16h 14m
Length of Day
15h 06m
Waning Crescent, 4% of the Moon is Illuminated
Jun 1
Waning Crescent
Jun 3
New
Jun 10
First Quarter
Jun 17
Full
Jun 25
Last Quarter

Hourly Weather History & Observations

Time (EDT) Temp. Dew Point Humidity Pressure Visibility Wind Dir Wind Speed Gust Speed Precip Events Conditions
12:53 AM 66.9 °F 55.9 °F 68% 29.79 in 10.0 mi WSW 6.9 mph - N/A   Clear
1:53 AM 66.0 °F 57.0 °F 73% 29.78 in 10.0 mi WSW 8.1 mph - N/A   Clear
2:53 AM 66.9 °F 57.0 °F 70% 29.73 in 10.0 mi SW 8.1 mph - N/A   Clear
3:53 AM 66.9 °F 57.9 °F 73% 29.74 in 10.0 mi WSW 9.2 mph - N/A   Clear
4:53 AM 66.9 °F 59.0 °F 76% 29.75 in 10.0 mi West 16.1 mph 24.2 mph N/A   Clear
5:53 AM 66.0 °F 57.9 °F 75% 29.70 in 10.0 mi South 8.1 mph - N/A   Mostly Cloudy
6:53 AM 64.0 °F 57.9 °F 80% 29.75 in 10.0 mi WNW 9.2 mph - N/A   Overcast
7:53 AM 66.0 °F 57.9 °F 75% 29.79 in 10.0 mi NW 8.1 mph - N/A   Overcast
8:53 AM 68.0 °F 60.1 °F 76% 29.77 in 10.0 mi North 8.1 mph - N/A   Mostly Cloudy
9:53 AM 71.1 °F 60.1 °F 68% 29.77 in 10.0 mi North 3.5 mph - N/A   Overcast
10:53 AM 70.0 °F 62.1 °F 76% 29.79 in 6.0 mi NNW 9.2 mph - 0.01 in Rain Rain
11:53 AM 73.9 °F 62.1 °F 66% 29.76 in 10.0 mi Calm Calm - 0.01 in   Mostly Cloudy
12:53 PM 73.9 °F 60.1 °F 62% 29.76 in 10.0 mi South 5.8 mph - N/A   Mostly Cloudy
1:53 PM 75.0 °F 62.1 °F 64% 29.75 in 10.0 mi SW 11.5 mph - N/A   Mostly Cloudy
2:03 PM 73.9 °F 62.1 °F 66% 29.76 in 10.0 mi WSW 12.7 mph - N/A Thunderstorm Thunderstorm
2:11 PM 72.0 °F 63.0 °F 73% 29.78 in 1.0 mi SW 18.4 mph 26.5 mph 0.07 in Rain , Thunderstorm Heavy Thunderstorms and Rain
2:16 PM 70.0 °F 63.0 °F 78% 29.78 in 3.0 mi WSW 19.6 mph 27.6 mph 0.11 in Rain , Thunderstorm Heavy Thunderstorms and Rain
2:36 PM 64.9 °F 57.9 °F 78% 29.79 in 5.0 mi WNW 19.6 mph 25.3 mph 0.11 in Rain , Thunderstorm Light Thunderstorms and Rain
2:53 PM 63.0 °F 57.9 °F 84% 29.78 in 6.0 mi WNW 15.0 mph - 0.12 in Rain , Thunderstorm Light Thunderstorms and Rain
3:26 PM 63.0 °F 59.0 °F 87% 29.77 in 9.0 mi NNW 13.8 mph 18.4 mph 0.00 in Rain Light Rain
3:53 PM 63.0 °F 59.0 °F 87% 29.75 in 6.0 mi North 11.5 mph - 0.01 in Rain Light Rain
4:53 PM 63.0 °F 60.1 °F 90% 29.70 in 10.0 mi ENE 8.1 mph - 0.00 in Rain Light Rain
5:53 PM 64.0 °F 60.1 °F 87% 29.74 in 10.0 mi SE 6.9 mph - 0.00 in   Overcast
6:53 PM 64.0 °F 60.1 °F 87% 29.75 in 10.0 mi South 6.9 mph - N/A   Overcast
7:53 PM 63.0 °F 61.0 °F 93% 29.74 in 9.0 mi South 6.9 mph - 0.00 in   Overcast
7:58 PM 63.0 °F 60.1 °F 90% 29.75 in 9.0 mi South 3.5 mph - N/A Thunderstorm Thunderstorm
8:53 PM 63.0 °F 60.1 °F 90% 29.73 in 3.0 mi South 8.1 mph - 0.00 in Rain , Thunderstorm Thunderstorms and Rain
8:56 PM 62.1 °F 60.1 °F 93% 29.74 in 2.0 mi SE 6.9 mph - 0.04 in Rain , Thunderstorm Heavy Thunderstorms and Rain
9:03 PM 62.1 °F 60.1 °F 93% 29.73 in 3.0 mi SE 8.1 mph - 0.04 in Rain , Thunderstorm Thunderstorms and Rain
9:53 PM 64.0 °F 61.0 °F 90% 29.78 in 3.0 mi SSW 4.6 mph - 0.16 in Rain , Thunderstorm Thunderstorms and Rain
10:13 PM 61.0 °F 61.0 °F 100% 29.81 in 2.0 mi WSW 5.8 mph - N/A Rain , Thunderstorm Thunderstorms and Rain
10:33 PM 61.0 °F 61.0 °F 100% 29.77 in 2.0 mi SE 4.6 mph - N/A Rain Rain
10:39 PM 61.0 °F 61.0 °F 100% 29.76 in 3.0 mi ESE 5.8 mph - N/A Rain Rain
10:53 PM 60.1 °F 60.1 °F 100% 29.74 in 3.0 mi SE 5.8 mph - N/A Rain Light Rain
11:53 PM 60.1 °F 60.1 °F 100% 29.73 in 5.0 mi South 3.5 mph - 0.01 in Rain Light Rain